Location: *
(32.8140°S, 174.6161°E)
Time: 05:51:47
(UTC+00:00)

Cosmos 1933 Rocket - Pass Details

Date: 10 December 2019
Orbit: 607 x 629 km, 82.5° (Epoch: 26 January)

Event Time Altitude Azimuth Distance (km) Brightness Sun altitude
Rises 16:13:47 0° 187° (S) 2,923 7.4 -10.2°
Reaches altitude 10° 16:16:02 10° 186° (S) 2,005 6.6 -9.8°
Maximum altitude 16:20:29 89° 95° (E) 625 3.6 -9.1°
Drops below altitude 10° 16:24:51 10° 5° (N) 1,965 5.9 -8.3°
Sets 16:27:02 0° 5° (N) 2,858 6.7 -7.9°
